User: anonymous
Location: Nebula Knoll Observatory
(43.6666°N, 71.0000°W)
Time: 00:50:01
(UTC-04:00)
Language:

Cosmos 1782 - Orbit

View from above orbital plane
View from above orbital plane
View from above satellite
View from above satellite

Ground track
Ground track

The orbit data is extracted from the following two-line orbital elements,

1 16986U 86074A   14231.07982149  .00001856  00000-0  13578-3 0  8239
2 16986 082.5068 044.4526 0010756 264.4351 095.5648 15.03009058515425
Epoch (UTC): 19 August 2014 01:54:56
Eccentricity: 0.0010756
inclination: 82.5068°
perigee height: 550 km
apogee height: 565 km
right ascension of ascending node: 44.4526°
argument of perigee: 264.4351°
revolutions per day: 15.03009058
mean anomaly at epoch: 95.5648°
orbit number at epoch: 51542

The dashed part of the orbit path shows where the satellite is in the earth's shadow,  

DLR